Theta_e
320 321 322 322 322 320 318 318 323 327 327 330 333 334 332 329 328 328 327 328 327 329 331 331 331 331 331 332 332 332 331 330
320 320 321 322 322 322 320 317 319 326 328 329 332 333 331 329 327 327 327 327 329 329 330 329 330 331 329 331 330 330 331 330
323 322 322 321 322 323 321 319 318 323 328 329 330 332 331 330 328 327 327 328 330 328 328 328 330 330 329 330 329 329 330 329
328 326 324 321 322 323 322 320 319 319 324 327 329 331 330 329 328 329 326 328 330 326 325 327 328 330 329 329 328 330 330 329
328 329 326 322 322 322 323 321 320 319 320 325 328 330 331 330 329 329 326 326 328 324 323 326 327 330 328 327 328 329 330 329
330 327 325 323 322 322 323 323 321 320 320 322 326 328 330 330 330 330 325 327 328 322 324 326 327 329 327 327 327 329 329 328
329 327 325 324 323 323 323 323 322 321 321 322 323 326 327 330 330 331 326 329 329 323 324 325 327 328 328 327 327 327 328 328
329 328 326 325 323 324 323 323 323 322 322 322 323 326 328 329 330 331 329 330 329 323 325 325 324 327 328 327 327 326 328 328
331 330 330 331 326 323 325 324 324 323 323 326 327 328 330 330 331 332 330 330 329 324 324 325 323 324 326 327 326 325 327 328
331 333 333 331 331 329 325 325 326 325 326 329 332 331 333 332 332 332 331 331 330 326 323 325 322 324 326 325 324 327 327 327
326 329 333 334 332 333 331 328 329 327 331 333 335 335 334 333 332 331 332 331 330 329 324 324 323 325 326 324 326 326 326 326
319 323 327 334 335 337 336 336 334 331 331 336 336 336 335 333 333 331 332 331 330 329 328 326 324 326 326 325 327 326 325 325
320 319 321 330 338 337 339 336 335 335 334 335 338 338 335 334 332 332 332 331 330 330 330 327 326 326 326 326 326 326 325 324
321 319 319 323 332 330 336 334 333 335 337 336 338 338 336 334 333 332 332 331 331 331 330 328 327 326 326 325 325 324 325 323
321 321 320 320 326 335 339 337 337 338 339 338 336 335 334 334 335 335 333 332 331 331 331 329 326 326 325 326 325 324 324 322
322 321 321 322 328 333 335 334 333 332 334 336 335 334 333 333 334 334 335 332 333 331 330 329 328 327 325 325 325 325 322 321
323 322 322 325 328 331 333 335 330 332 334 336 337 334 333 333 332 332 331 331 331 330 328 329 329 329 327 326 325 325 323 322
322 323 325 326 329 334 332 331 331 334 336 337 337 334 333 332 331 331 330 329 329 328 329 327 328 327 327 326 325 324 323 322
326 327 327 333 336 334 331 331 332 333 335 337 334 332 331 330 330 330 329 328 327 327 327 328 326 327 327 326 326 325 323 322
328 328 330 334 334 332 333 335 336 336 337 337 333 332 331 330 330 329 328 327 326 326 327 327 327 326 327 327 327 327 325 322
Wind_Speed
22 19 17 14 11 9 8 8 11 11 11 12 14 14 13 10 13 17 11 21 23 19 18 20 19 21 22 21 19 19 16 16
24 21 20 18 14 11 10 9 9 12 13 12 15 16 13 13 16 16 10 26 22 19 17 18 19 22 21 20 18 18 17 13
24 23 23 21 18 15 13 12 11 12 15 14 16 18 15 15 16 16 19 24 21 17 19 18 18 21 21 19 18 18 15 14
26 24 24 24 22 19 15 14 13 13 15 17 16 17 16 14 18 14 22 20 19 18 18 18 19 23 21 19 18 19 17 16
28 27 26 27 25 23 20 18 16 16 15 16 17 17 19 18 19 17 24 25 23 20 18 20 22 24 24 23 20 19 20 18
29 28 28 30 27 26 23 22 20 19 18 18 19 19 19 20 20 17 24 28 27 23 21 22 25 24 24 26 23 21 21 17
30 30 29 29 29 28 26 25 23 21 20 19 19 19 18 20 21 21 23 27 27 25 23 23 25 26 24 24 25 21 22 19
28 29 29 28 29 28 29 27 26 24 23 22 20 19 18 19 21 23 24 26 26 25 24 21 22 26 25 25 23 22 23 21
35 34 30 28 26 27 27 28 27 27 26 23 21 20 20 20 20 23 25 26 25 26 22 20 21 22 24 24 24 23 24 20
35 37 36 32 29 26 26 28 28 28 27 25 24 21 21 21 20 23 26 28 28 26 25 23 21 22 22 24 26 23 23 20
38 38 39 38 35 33 29 28 28 29 28 27 25 23 22 22 22 23 27 29 28 27 27 25 26 22 27 25 25 25 22 23
37 38 37 42 41 39 34 28 28 28 29 29 26 25 24 24 24 25 28 30 30 27 26 27 28 25 26 28 26 26 26 25
46 41 39 47 49 44 38 34 31 31 31 30 29 29 27 27 26 26 31 32 31 28 29 31 31 28 27 30 29 27 29 26
47 46 45 48 51 47 43 37 32 31 32 31 32 31 30 30 29 29 34 34 34 33 33 36 34 34 30 34 18 26 33 31
48 48 49 51 52 53 46 39 34 32 33 32 32 31 31 31 32 32 34 36 37 36 36 39 40 38 34 29 19 12 33 34
49 56 47 49 54 53 48 43 39 36 35 35 29 32 31 32 32 32 32 33 37 34 35 40 42 41 40 43 36 21 34 20
30 35 40 44 50 50 46 42 37 36 36 32 30 31 32 31 31 30 31 33 34 34 34 38 42 42 43 44 41 32 34 29
25 25 33 39 44 47 43 41 38 37 33 31 31 31 33 32 32 32 32 31 34 35 36 36 40 43 43 46 50 42 38 36
31 34 37 42 45 41 36 35 37 33 29 27 27 31 33 34 34 34 34 32 33 34 37 39 38 42 43 46 50 51 40 38
28 30 29 31 35 33 35 35 30 28 28 26 26 28 30 29 29 32 33 32 33 32 36 36 37 40 45 45 49 53 50 44
Wind_Direction
175 182 188 195 191 181 169 178 178 172 167 166 168 169 159 160 158 172 179 190 194 178 168 163 170 173 175 174 174 163 162 157
185 190 198 202 201 193 184 183 180 172 172 175 170 167 161 161 152 170 163 168 174 176 175 166 181 179 179 178 178 172 167 169
195 198 203 206 206 203 194 190 185 179 177 178 177 175 174 167 167 168 160 163 175 173 176 170 185 184 185 184 187 183 178 175
206 207 208 209 208 208 203 197 192 187 185 183 185 183 186 179 178 175 184 177 182 181 174 177 187 186 188 193 196 187 188 188
213 217 216 214 212 210 207 204 198 193 193 189 185 189 192 187 188 183 186 189 187 187 182 184 191 195 185 201 203 194 189 192
219 219 216 215 215 214 213 208 206 203 198 195 193 195 199 195 197 196 190 191 191 190 186 190 195 201 199 204 202 196 192 192
224 221 219 216 216 214 214 214 212 211 205 203 203 202 203 205 205 204 197 196 198 193 193 196 199 206 206 210 207 203 199 195
218 221 220 219 220 216 215 214 214 215 212 210 208 206 204 206 205 207 205 203 202 196 200 205 207 209 211 211 207 204 202 199
222 221 220 219 222 219 217 216 215 215 214 208 207 207 207 210 207 212 210 206 205 201 206 211 210 211 213 211 209 209 206 202
226 229 224 222 222 221 220 221 219 218 217 211 207 209 211 214 214 215 210 210 208 209 211 210 208 205 205 209 212 211 210 217
221 222 227 224 225 222 221 221 220 222 219 217 215 212 214 218 221 218 212 211 210 211 214 213 202 200 204 208 208 212 216 203
243 227 225 227 224 221 218 218 222 224 225 222 221 221 219 220 222 221 213 212 210 211 215 212 213 215 206 204 210 209 213 202
244 234 229 225 219 222 215 216 219 222 225 228 225 227 223 221 221 218 215 216 218 218 216 213 206 208 200 202 207 211 205 207
241 237 234 230 225 224 221 217 219 224 223 227 229 229 233 223 218 216 217 218 222 223 220 211 208 204 202 196 187 199 205 205
238 240 238 233 227 219 215 213 215 220 225 224 224 227 228 223 219 218 223 224 224 224 222 217 209 207 210 199 188 190 201 208
236 236 233 228 222 217 216 212 213 220 225 224 216 225 223 220 222 223 224 227 225 224 225 220 218 218 212 215 207 205 182 195
220 220 217 217 217 217 217 215 222 226 224 224 216 227 222 224 224 224 228 231 231 225 225 227 226 226 219 211 211 216 207 197
212 208 209 213 212 212 215 219 222 224 222 217 217 229 228 225 224 224 225 228 231 234 227 230 232 229 228 223 217 210 202 203
204 199 202 204 206 211 216 223 226 227 231 220 223 228 228 231 225 224 225 228 231 234 236 232 234 233 233 230 228 222 214 204
184 185 190 199 205 212 220 224 226 231 235 233 233 231 236 229 220 227 230 228 229 235 237 237 235 239 235 233 235 233 226 212